When you browse on this site, cookies collect data to enhance your experience and personalize the content and advertising you see.
Visit our Privacy Policy to learn more. By continuing to use the site, you agree to this use of cookies and data.
  • In Belgium
  • List of Countries
  • For 7 days
  • Water Temperature
  • Weather Map
  • Weather Widgets
  • user-avatar
    Login

    Hourly Weather Mochudi

    Today, 6 June, Saturday

    Time Temperature Precipitation Wind Pressure Humidity
    00:00 +12°C° 0 mm 0 mps 685 mmHg 50%
    01:00 +11°C° 0 mm 0 mps 685 mmHg 52%
    02:00 +11°C° 0 mm 0 mps 685 mmHg 53%
    03:00 +10°C° 0 mm 0 mps 685 mmHg 55%
    04:00 +11°C° 0 mm 1 mps 685 mmHg 57%
    05:00 +10°C° 0 mm 1 mps 684 mmHg 59%
    06:00 +11°C° 0 mm 1 mps 685 mmHg 59%
    07:00 +11°C° 0 mm 1 mps 686 mmHg 58%
    08:00 +11°C° 0 mm 1 mps 686 mmHg 58%
    09:00 +14°C° 0 mm 1 mps 686 mmHg 52%
    10:00 +18°C° 0 mm 1 mps 687 mmHg 46%
    11:00 +20°C° 0 mm 2 mps 687 mmHg 40%
    12:00 +21°C° 0 mm 2 mps 687 mmHg 35%
    13:00 +23°C° 0 mm 2 mps 686 mmHg 30%
    14:00 +24°C° 0 mm 2 mps 686 mmHg 25%
    15:00 +24°C° 0 mm 2 mps 685 mmHg 26%
    16:00 +23°C° 0 mm 2 mps 685 mmHg 27%
    17:00 +21°C° 0 mm 2 mps 685 mmHg 27%
    18:00 +20°C° 0 mm 1 mps 685 mmHg 32%
    19:00 +18°C° 0 mm 1 mps 685 mmHg 36%
    20:00 +15°C° 0 mm 1 mps 685 mmHg 41%
    21:00 +15°C° 0 mm 1 mps 685 mmHg 43%
    22:00 +14°C° 0 mm 1 mps 685 mmHg 45%
    23:00 +14°C° 0 mm 1 mps 685 mmHg 47%

    Tomorrow, 7 June, Sunday

    Time Temperature Precipitation Wind Pressure Humidity
    00:00 +13°C° 0 mm 1 mps 685 mmHg 49%
    01:00 +13°C° 0 mm 1 mps 685 mmHg 51%
    02:00 +12°C° 0 mm 2 mps 684 mmHg 53%
    03:00 +11°C° 0 mm 1 mps 684 mmHg 56%
    04:00 +11°C° 0 mm 1 mps 684 mmHg 60%
    05:00 +9°C° 0 mm 0 mps 684 mmHg 63%
    06:00 +9°C° 0 mm 0 mps 685 mmHg 62%
    07:00 +10°C° 0 mm 0 mps 685 mmHg 61%
    08:00 +11°C° 0 mm 0 mps 686 mmHg 60%
    09:00 +14°C° 0 mm 1 mps 686 mmHg 54%
    10:00 +18°C° 0 mm 1 mps 687 mmHg 49%
    11:00 +21°C° 0 mm 1 mps 687 mmHg 44%
    12:00 +22°C° 0 mm 1 mps 686 mmHg 39%
    13:00 +23°C° 0 mm 2 mps 686 mmHg 34%
    14:00 +24°C° 0 mm 2 mps 685 mmHg 29%
    15:00 +24°C° 0 mm 1 mps 685 mmHg 29%
    16:00 +23°C° 0 mm 1 mps 685 mmHg 30%
    17:00 +22°C° 0 mm 1 mps 684 mmHg 31%
    18:00 +20°C° 0 mm 1 mps 684 mmHg 36%
    19:00 +18°C° 0 mm 1 mps 684 mmHg 40%
    20:00 +14°C° 0 mm 0 mps 684 mmHg 45%
    21:00 +14°C° 0 mm 0 mps 684 mmHg 46%
    22:00 +15°C° 0 mm 1 mps 684 mmHg 48%
    23:00 +14°C° 0 mm 1 mps 684 mmHg 49%

    Day after tomorrow, 8 June, Monday

    Time Temperature Precipitation Wind Pressure Humidity
    00:00 +14°C° 0 mm 1 mps 684 mmHg 51%
    01:00 +13°C° 0 mm 1 mps 684 mmHg 52%
    02:00 +13°C° 0 mm 1 mps 683 mmHg 54%
    03:00 +12°C° 0 mm 1 mps 683 mmHg 56%
    04:00 +12°C° 0 mm 1 mps 683 mmHg 58%
    05:00 +11°C° 0 mm 1 mps 683 mmHg 61%
    06:00 +11°C° 0 mm 1 mps 683 mmHg 59%
    07:00 +12°C° 0 mm 1 mps 684 mmHg 57%
    08:00 +12°C° 0 mm 1 mps 684 mmHg 56%
    09:00 +15°C° 0 mm 1 mps 685 mmHg 48%
    10:00 +19°C° 0 mm 1 mps 685 mmHg 40%
    11:00 +22°C° 0 mm 1 mps 686 mmHg 32%
    12:00 +23°C° 0 mm 2 mps 685 mmHg 29%
    13:00 +24°C° 0 mm 2 mps 685 mmHg 26%
    14:00 +25°C° 0 mm 2 mps 684 mmHg 22%
    15:00 +24°C° 0 mm 2 mps 684 mmHg 23%
    16:00 +24°C° 0 mm 2 mps 683 mmHg 23%
    17:00 +23°C° 0 mm 1 mps 683 mmHg 24%
    18:00 +21°C° 0 mm 1 mps 683 mmHg 27%
    19:00 +19°C° 0 mm 1 mps 683 mmHg 30%
    20:00 +16°C° 0 mm 1 mps 683 mmHg 34%
    21:00 +14°C° 0 mm 0 mps 683 mmHg 35%
    22:00 +14°C° 0 mm 0 mps 683 mmHg 36%
    23:00 +13°C° 0 mm 0 mps 683 mmHg 37%

    9 June, Tuesday

    Time Temperature Precipitation Wind Pressure Humidity
    00:00 +13°C° 0 mm 0 mps 683 mmHg 38%
    01:00 +13°C° 0 mm 1 mps 683 mmHg 39%
    02:00 +13°C° 0 mm 1 mps 682 mmHg 40%
    03:00 +12°C° 0 mm 1 mps 682 mmHg 43%
    04:00 +11°C° 0 mm 1 mps 682 mmHg 46%
    05:00 +11°C° 0 mm 1 mps 682 mmHg 48%
    06:00 +12°C° 0 mm 1 mps 683 mmHg 48%
    07:00 +12°C° 0 mm 1 mps 683 mmHg 48%
    08:00 +13°C° 0 mm 1 mps 684 mmHg 48%
    09:00 +16°C° 0 mm 2 mps 684 mmHg 45%
    10:00 +18°C° 0 mm 2 mps 685 mmHg 43%
    11:00 +21°C° 0 mm 3 mps 685 mmHg 41%
    12:00 +22°C° 0 mm 3 mps 684 mmHg 36%
    13:00 +25°C° 0 mm 3 mps 684 mmHg 30%
    14:00 +26°C° 0 mm 3 mps 683 mmHg 25%
    15:00 +25°C° 0 mm 3 mps 683 mmHg 26%
    16:00 +24°C° 0 mm 3 mps 682 mmHg 27%
    17:00 +24°C° 0 mm 2 mps 682 mmHg 28%
    18:00 +21°C° 0 mm 2 mps 682 mmHg 33%
    19:00 +19°C° 0 mm 2 mps 682 mmHg 37%
    20:00 +17°C° 0 mm 2 mps 682 mmHg 41%
    21:00 +16°C° 0 mm 2 mps 682 mmHg 43%
    22:00 +15°C° 0 mm 2 mps 682 mmHg 45%
    23:00 +15°C° 0 mm 2 mps 682 mmHg 47%

    10 June, Wednesday

    Time Temperature Precipitation Wind Pressure Humidity
    00:00 +14°C° 0 mm 2 mps 682 mmHg 52%
    01:00 +13°C° 0 mm 2 mps 682 mmHg 57%
    02:00 +13°C° 0 mm 1 mps 682 mmHg 62%
    03:00 +12°C° 0 mm 1 mps 682 mmHg 67%
    04:00 +11°C° 0 mm 1 mps 681 mmHg 71%
    05:00 +11°C° 0 mm 1 mps 681 mmHg 75%
    06:00 +11°C° 0 mm 1 mps 682 mmHg 75%
    07:00 +12°C° 0 mm 1 mps 682 mmHg 75%
    08:00 +12°C° 0 mm 2 mps 683 mmHg 74%
    09:00 +15°C° 0 mm 2 mps 683 mmHg 64%
    10:00 +18°C° 0 mm 3 mps 683 mmHg 54%
    11:00 +22°C° 0 mm 4 mps 683 mmHg 43%
    12:00 +23°C° 0 mm 4 mps 683 mmHg 36%
    13:00 +25°C° 0 mm 3 mps 682 mmHg 29%
    14:00 +27°C° 0 mm 3 mps 682 mmHg 22%
    15:00 +26°C° 0 mm 2 mps 681 mmHg 23%
    16:00 +26°C° 0 mm 2 mps 681 mmHg 24%
    17:00 +25°C° 0 mm 1 mps 680 mmHg 24%
    18:00 +23°C° 0 mm 1 mps 680 mmHg 28%
    19:00 +21°C° 0 mm 1 mps 680 mmHg 32%
    20:00 +18°C° 0 mm 1 mps 680 mmHg 36%
    21:00 +18°C° 0 mm 1 mps 680 mmHg 37%
    22:00 +16°C° 0 mm 1 mps 680 mmHg 38%
    23:00 +15°C° 0 mm 2 mps 680 mmHg 39%

    11 June, Thursday

    Time Temperature Precipitation Wind Pressure Humidity
    00:00 +15°C° 0 mm 2 mps 679 mmHg 40%
    01:00 +15°C° 0 mm 2 mps 679 mmHg 41%
    02:00 +14°C° 0 mm 2 mps 679 mmHg 42%
    03:00 +14°C° 0 mm 2 mps 678 mmHg 42%
    04:00 +13°C° 0 mm 2 mps 678 mmHg 43%
    05:00 +13°C° 0 mm 2 mps 678 mmHg 44%
    06:00 +13°C° 0 mm 1 mps 679 mmHg 43%
    07:00 +14°C° 0 mm 1 mps 680 mmHg 42%
    08:00 +14°C° 0 mm 1 mps 680 mmHg 41%
    09:00 +16°C° 0 mm 1 mps 681 mmHg 35%
    10:00 +20°C° 0 mm 1 mps 681 mmHg 29%
    11:00 +21°C° 0 mm 2 mps 682 mmHg 23%
    12:00 +24°C° 0 mm 2 mps 681 mmHg 21%
    13:00 +25°C° 0 mm 3 mps 681 mmHg 19%
    14:00 +26°C° 0 mm 3 mps 680 mmHg 17%
    15:00 +26°C° 0 mm 3 mps 680 mmHg 18%
    16:00 +25°C° 0 mm 3 mps 680 mmHg 19%
    17:00 +25°C° 0 mm 3 mps 680 mmHg 20%
    18:00 +21°C° 0 mm 3 mps 680 mmHg 24%
    19:00 +19°C° 0 mm 3 mps 680 mmHg 28%
    20:00 +16°C° 0 mm 3 mps 680 mmHg 31%
    21:00 +14°C° 0 mm 3 mps 680 mmHg 33%
    22:00 +13°C° 0 mm 3 mps 680 mmHg 35%
    23:00 +12°C° 0 mm 3 mps 680 mmHg 36%
    Show more